TimeEDT,TemperatureF,Dew PointF,Humidity,Sea Level PressureIn,VisibilityMPH,Wind Direction,Wind SpeedMPH,Gust SpeedMPH,PrecipitationIn,Events,Conditions,WindDirDegrees,DateUTC
12:54 AM,39.9,16.0,38,30.20,10.0,Variable,3.5,-,N/A,,Clear,0,2013-03-15 04:54:00
1:54 AM,35.1,19.0,52,30.20,10.0,Calm,Calm,-,N/A,,Clear,0,2013-03-15 05:54:00
3:54 AM,30.0,21.0,69,30.17,10.0,Calm,Calm,-,N/A,,Clear,0,2013-03-15 07:54:00
4:54 AM,28.9,21.0,72,30.18,10.0,Calm,Calm,-,N/A,,Clear,0,2013-03-15 08:54:00
5:54 AM,28.9,21.9,75,30.18,10.0,Calm,Calm,-,N/A,,Clear,0,2013-03-15 09:54:00
6:54 AM,28.9,21.9,75,30.19,10.0,Calm,Calm,-,N/A,,Clear,0,2013-03-15 10:54:00
7:54 AM,28.0,21.9,78,30.20,10.0,Variable,3.5,-,N/A,,Clear,0,2013-03-15 11:54:00
8:54 AM,35.1,25.0,67,30.22,10.0,Variable,3.5,-,N/A,,Clear,0,2013-03-15 12:54:00
9:54 AM,43.0,21.9,43,30.20,10.0,Variable,5.8,-,N/A,,Clear,0,2013-03-15 13:54:00
10:54 AM,50.0,19.9,31,30.17,10.0,South,9.2,-,N/A,,Clear,170,2013-03-15 14:54:00
11:54 AM,54.0,23.0,30,30.14,10.0,South,8.1,-,N/A,,Clear,190,2013-03-15 15:54:00
12:54 PM,55.9,27.0,33,30.11,10.0,SW,9.2,19.6,N/A,,Clear,220,2013-03-15 16:54:00
1:54 PM,59.0,28.9,32,30.07,10.0,SSW,6.9,18.4,N/A,,Clear,200,2013-03-15 17:54:00
2:54 PM,62.1,30.9,31,30.03,10.0,SSW,8.1,18.4,N/A,,Clear,210,2013-03-15 18:54:00
3:54 PM,62.1,33.1,34,30.00,10.0,Variable,5.8,17.3,N/A,,Clear,0,2013-03-15 19:54:00
4:54 PM,66.0,34.0,30,29.95,10.0,Variable,6.9,-,N/A,,Clear,0,2013-03-15 20:54:00
5:54 PM,68.0,34.0,28,29.94,10.0,WSW,8.1,16.1,N/A,,Clear,240,2013-03-15 21:54:00
6:54 PM,66.0,35.1,32,29.93,10.0,Variable,6.9,-,N/A,,Clear,0,2013-03-15 22:54:00
7:54 PM,61.0,36.0,39,29.93,10.0,South,3.5,-,N/A,,Clear,190,2013-03-15 23:54:00
8:54 PM,57.9,37.0,46,29.92,10.0,South,3.5,-,N/A,,Clear,190,2013-03-16 00:54:00
9:54 PM,55.9,37.0,49,29.92,10.0,Calm,Calm,-,N/A,,Clear,0,2013-03-16 01:54:00
10:54 PM,55.9,37.9,51,29.92,10.0,SW,3.5,-,N/A,,Clear,230,2013-03-16 02:54:00
11:54 PM,55.9,39.0,53,29.91,10.0,SW,3.5,-,N/A,,Scattered Clouds,220,2013-03-16 03:54:00